Temperature
17 17 17 17 17 17 16 16 16 16 16 16 16 16 16 16 16 16 16 16 15 15 15 15 15 15 15 15 15 15 15 15 14 14 14 14 14 14 14 14 14 14 14
17 17 17 17 17 17 16 16 16 16 16 16 16 16 16 16 16 16 16 15 15 15 15 15 15 15 15 15 15 15 15 14 14 14 14 14 14 14 14 13 13 13 13
17 17 17 17 17 17 16 16 16 16 16 15 15 15 16 15 15 15 15 15 15 15 15 15 15 15 15 15 15 14 14 14 14 14 14 13 13 13 13 13 13 13 13
17 17 17 17 16 16 16 16 16 16 15 15 15 15 15 15 15 15 15 15 15 15 15 15 15 15 15 14 14 14 14 13 13 13 13 13 13 13 13 13 13 13 13
16 16 17 17 16 16 16 16 16 16 15 15 15 15 15 15 15 15 15 15 15 15 15 15 15 15 14 14 14 14 14 13 13 13 13 13 13 13 13 13 13 13 12
16 16 16 16 16 16 16 16 15 15 15 15 15 15 15 15 15 15 15 14 15 15 15 15 15 14 14 14 14 14 13 13 13 13 13 13 13 13 13 13 12 12 12
16 16 16 16 16 16 15 15 15 15 15 15 15 15 15 14 14 14 14 14 14 14 14 14 14 14 14 14 14 14 13 13 13 13 13 13 13 13 12 12 12 12 12
15 15 16 16 16 16 15 15 15 15 15 15 15 15 15 14 14 14 14 14 14 14 14 14 14 14 14 14 14 13 13 13 12 12 12 12 12 12 12 12 12 12 12
15 15 15 15 15 15 15 15 14 14 14 14 14 14 14 14 14 14 14 14 14 14 14 14 14 14 14 14 13 13 13 12 12 12 12 12 12 12 12 12 11 11 11
14 15 15 15 15 14 14 14 14 14 14 14 14 14 14 14 14 14 14 14 14 14 14 14 14 14 14 13 13 13 12 12 12 12 12 12 12 12 11 11 11 11 11
14 14 14 14 14 14 14 14 14 14 14 14 13 14 14 14 14 14 13 13 13 13 13 13 13 13 13 13 13 12 12 12 12 12 12 12 11 11 11 11 11 11 11
13 14 14 14 14 14 14 14 13 13 13 13 13 13 13 13 13 13 13 13 13 13 13 13 13 13 13 13 12 12 12 12 12 12 12 11 11 11 11 11 11 10 10
13 13 13 13 13 13 13 13 13 13 13 13 13 13 13 13 13 13 13 13 13 13 13 13 13 12 12 12 12 12 12 12 11 12 11 11 11 11 11 11 10 10 10
13 13 13 13 13 13 13 13 13 13 13 12 12 12 12 12 12 12 12 12 12 12 12 12 12 12 12 12 12 12 11 11 11 11 11 11 11 11 11 11 10 10 10
12 12 13 13 13 13 12 12 12 12 13 12 12 12 12 12 12 12 12 12 12 12 12 12 12 12 12 12 12 11 11 11 11 11 11 11 11 11 11 10 10 10 10
12 12 12 13 13 13 12 12 12 12 12 12 12 12 12 12 12 12 12 12 12 12 12 12 12 11 11 11 11 11 11 11 11 11 11 11 11 11 11 10 10 10 10
12 12 12 12 12 12 12 12 12 12 12 12 12 12 12 12 12 12 11 11 12 12 12 11 11 11 11 11 11 11 11 11 11 11 11 11 11 11 11 10 10 10 10
12 12 12 12 12 12 12 12 12 12 12 11 12 11 11 12 11 11 11 11 11 11 11 11 11 11 11 11 11 11 11 11 11 11 11 11 10 10 10 10 10 10 9
11 11 11 11 11 11 11 11 11 11 11 11 11 11 11 11 11 11 11 11 11 11 11 11 11 11 11 11 11 11 11 11 11 11 10 10 10 10 10 10 10 9 9
11 11 11 11 11 11 11 11 11 11 11 11 11 11 11 11 11 11 11 11 11 11 11 10 10 10 10 10 10 10 10 10 10 10 10 10 10 10 10 9 9 9 9
10 10 10 10 10 10 10 10 10 11 11 11 11 11 11 11 11 11 11 11 11 10 10 10 10 10 10 10 10 10 10 10 10 10 10 9 9 9 9 9 9 9 8
10 10 10 10 10 10 10 10 10 10 10 10 10 10 10 11 11 11 11 10 10 10 10 10 10 10 9 9 9 9 9 9 9 9 9 9 9 9 9 8 8 8 8
9 9 9 9 9 10 10 10 10 10 10 10 10 10 10 10 10 10 10 10 10 10 10 10 10 9 9 9 9 8 8 8 8 9 9 9 8 8 8 8 8 8 7
9 9 9 9 9 9 10 9 9 9 9 9 9 9 9 10 10 10 10 10 10 10 9 9 9 9 9 9 9 8 8 8 8 8 8 8 8 8 8 7 7 7 7
9 8 8 8 8 9 9 9 9 9 9 9 9 9 9 9 9 9 9 9 9 9 9 9 9 9 9 9 9 8 8 8 8 7 7 7 7 7 7 7 7 6 6
9 8 8 8 8 8 9 9 9 9 9 9 9 9 9 9 9 9 9 9 9 9 9 9 8 8 8 8 8 8 8 7 7 7 6 6 6 7 6 6 6 6 6
Wind_Speed
7 10 13 12 12 11 11 11 11 11 11 11 11 12 13 13 13 13 13 13 13 13 13 13 13 14 14 13 13 14 14 14 14 14 14 14 14 14 14 13 13 12 13
9 12 14 13 12 12 11 11 11 11 11 11 11 12 12 12 12 12 12 12 12 12 12 13 13 13 13 12 12 12 12 11 11 12 12 12 13 13 13 13 13 12 13
10 13 14 13 12 12 12 12 11 11 11 11 11 11 11 11 12 11 11 12 12 12 12 12 12 12 12 11 11 11 10 9 9 10 11 10 11 13 13 13 13 13 13
9 13 13 13 13 12 12 12 12 11 11 11 11 11 10 10 11 11 11 11 11 11 11 11 11 11 10 10 10 10 9 8 9 9 10 11 11 12 13 13 13 12 12
9 11 13 14 13 12 12 12 12 11 11 11 11 10 10 10 10 10 10 10 11 11 10 10 10 10 10 9 9 8 7 7 8 10 10 11 11 12 12 12 12 12 11
8 10 12 14 13 12 12 12 11 11 11 11 11 10 10 9 9 9 10 10 10 10 10 9 9 9 9 8 7 7 6 6 8 9 10 11 10 11 11 11 11 11 11
7 10 12 14 13 13 12 12 12 11 11 11 10 10 9 9 9 9 10 9 9 9 9 9 9 9 9 8 7 6 5 6 7 9 10 10 10 11 10 10 10 10 10
7 9 11 12 13 13 13 12 11 11 11 11 10 10 9 9 9 9 9 9 8 8 8 8 8 8 7 7 6 4 4 4 6 8 10 9 9 9 9 9 9 8 8
6 8 9 10 11 13 13 12 12 11 11 11 10 10 9 9 9 9 9 8 8 8 8 7 7 6 6 5 4 3 3 4 5 7 8 8 8 8 8 8 7 7 8
4 6 7 9 9 10 12 13 12 11 11 11 10 10 9 9 8 8 8 8 7 8 7 6 6 5 5 4 3 2 1 2 5 8 8 8 7 7 7 6 6 6 7
3 3 5 7 7 8 10 12 12 12 11 11 10 10 9 8 8 7 8 7 7 7 7 6 5 4 3 2 2 1 0 2 6 7 7 7 6 5 5 5 5 6 6
3 3 3 5 6 7 8 10 10 10 10 10 9 9 8 7 7 7 8 7 7 7 6 5 4 4 3 2 1 2 1 3 6 7 7 7 5 4 4 4 4 5 5
4 3 3 3 5 5 5 7 7 8 8 8 9 9 7 7 7 7 7 6 6 6 5 5 4 3 2 2 1 1 2 4 5 6 7 6 4 3 3 3 4 4 5
5 4 3 3 4 5 5 5 6 6 6 6 7 8 7 5 4 5 5 5 5 5 4 4 2 2 2 2 2 2 3 4 5 6 6 5 4 3 3 3 3 3 4
5 4 4 4 4 5 5 4 4 5 6 6 7 7 7 5 4 4 4 4 4 4 4 3 2 3 2 2 2 3 3 4 5 6 5 5 3 2 2 3 3 3 4
5 5 4 5 4 5 4 4 4 5 6 7 7 7 7 6 5 4 3 3 3 4 4 3 3 2 2 2 2 3 3 3 4 5 5 5 4 2 2 3 3 4 4
6 5 4 4 4 5 5 4 4 4 6 6 6 8 7 6 6 4 3 2 3 3 3 3 2 3 2 2 1 2 2 2 3 3 4 4 4 3 1 1 3 4 4
5 5 4 3 3 4 5 4 3 4 5 5 6 7 8 7 6 5 3 2 3 3 3 3 2 1 1 1 1 0 1 1 2 2 2 3 3 2 1 0 2 4 5
5 6 5 4 4 3 4 4 3 3 4 5 6 6 7 7 6 5 3 3 4 3 2 2 2 2 1 1 0 1 1 1 1 1 2 2 3 2 2 1 2 3 4
5 5 5 5 4 4 4 3 3 3 3 4 5 6 7 7 7 5 4 3 3 2 2 2 2 2 2 1 1 1 1 1 1 1 2 2 2 2 1 1 1 2 3
5 6 6 6 5 4 4 4 4 4 4 4 4 6 7 7 7 6 4 3 3 2 3 3 3 3 1 1 0 1 1 2 2 2 2 1 1 2 2 1 1 1 2
6 6 6 6 6 4 5 5 4 3 3 3 4 5 6 7 7 6 5 4 3 2 3 3 3 2 1 1 1 1 1 1 2 2 1 2 2 1 1 1 0 1 1
6 7 6 6 6 5 5 4 3 3 3 2 3 3 4 6 7 6 6 4 3 3 3 3 4 3 3 2 1 2 2 2 2 2 3 3 2 1 1 0 0 1 1
6 6 6 6 6 6 6 6 6 5 4 4 4 4 4 5 5 6 6 5 4 2 3 3 3 2 3 3 1 1 2 2 1 2 2 2 2 2 2 1 0 1 1
6 6 6 6 6 6 6 7 7 5 3 3 4 5 4 3 4 5 5 5 4 3 3 3 2 2 2 3 2 1 2 1 1 2 3 3 2 2 2 1 1 1 1
5 6 6 6 7 7 6 6 6 6 5 5 4 4 4 3 3 4 4 4 4 3 3 3 3 3 2 2 2 1 2 2 2 2 3 3 3 3 2 1 1 1 1
Wind_Direction
120 130 140 134 130 125 121 117 114 110 109 105 104 102 106 105 103 104 101 98 95 93 92 91 89 88 85 82 81 80 79 78 77 77 75 75 73 72 69 67 69 67 68
128 134 141 136 133 130 125 120 115 113 112 109 106 103 104 105 104 105 106 103 100 97 94 92 90 88 85 85 84 82 81 81 79 79 75 76 73 72 70 67 71 69 68
124 134 141 138 135 132 127 123 118 116 114 112 108 106 103 105 105 106 106 106 104 100 96 92 91 91 87 87 87 84 82 80 77 76 75 73 71 71 71 69 70 69 67
123 133 143 141 137 134 130 127 123 120 117 114 111 108 107 104 107 106 105 107 105 101 99 96 94 95 93 91 90 85 80 73 68 74 74 71 68 70 70 67 65 66 66
115 128 141 142 140 137 134 131 127 123 120 117 115 112 111 107 105 108 106 106 106 103 100 98 98 98 95 94 90 86 78 68 67 75 71 73 70 71 70 67 63 62 62
117 119 138 145 144 140 138 134 130 127 124 121 118 115 113 112 106 108 106 103 105 105 101 98 99 98 98 97 94 88 77 68 72 76 73 73 70 72 71 68 65 61 59
118 120 136 148 147 144 142 138 134 131 128 124 121 119 119 117 111 108 109 105 105 104 104 101 101 101 98 95 90 84 73 68 79 77 76 73 73 72 71 67 64 61 59
117 122 135 145 149 148 145 142 139 136 134 129 125 124 123 120 119 113 112 110 108 107 105 104 103 104 101 97 92 79 56 58 76 80 77 74 76 73 71 66 62 58 57
113 120 134 144 149 150 147 145 144 141 138 134 130 127 124 123 122 124 114 113 112 110 108 105 105 101 102 101 98 81 51 43 61 77 80 76 79 77 72 67 59 58 55
106 125 136 142 149 152 150 149 147 144 140 136 133 130 128 126 125 127 124 116 119 116 112 109 106 105 102 107 111 92 42 36 78 77 76 80 82 79 74 68 60 55 50
109 125 135 143 149 153 156 156 151 147 144 140 139 137 135 136 134 132 130 127 127 126 120 113 109 111 112 126 150 170 49 80 90 84 79 85 85 80 74 67 55 47 44
161 145 141 145 153 158 158 156 157 155 153 152 154 155 156 143 135 134 138 137 137 138 133 127 122 124 127 137 185 213 93 90 97 93 91 92 89 84 74 61 49 38 30
170 161 156 155 155 161 157 158 160 157 159 161 162 162 147 133 134 134 138 140 145 150 147 144 151 155 116 99 96 94 77 75 86 91 98 101 91 80 60 47 35 24 18
173 178 172 168 167 165 162 161 162 160 164 164 160 156 145 140 136 138 146 155 158 158 155 158 166 128 99 87 87 77 72 77 88 93 99 105 94 69 48 36 13 4 3
186 185 184 174 182 171 162 164 165 166 162 159 155 158 153 147 152 143 153 157 153 155 158 162 142 116 99 72 71 74 70 81 96 98 109 119 112 85 38 7 352 351 350
196 189 187 178 185 177 165 166 171 168 162 157 157 163 157 152 151 143 141 146 143 153 158 154 138 127 120 90 73 71 69 74 92 103 116 130 130 113 44 356 346 347 345
192 184 183 189 182 182 172 169 167 168 164 160 159 159 154 149 148 146 141 138 136 146 144 129 119 112 106 88 78 74 76 77 82 99 110 121 131 136 122 353 341 342 343
186 176 175 197 184 193 176 164 162 165 161 161 161 159 155 152 151 147 145 144 136 136 138 132 127 120 132 128 135 130 102 109 104 101 101 114 124 125 139 275 328 329 334
189 176 173 181 190 197 176 156 156 151 156 159 162 158 156 158 157 147 148 153 140 133 146 144 134 147 151 125 145 188 214 164 153 133 110 118 129 134 139 211 279 307 320
183 176 175 177 191 190 173 157 153 156 162 160 165 161 158 159 160 152 152 156 142 138 159 152 153 148 150 159 236 243 236 196 177 179 187 146 145 156 163 229 261 287 308
173 175 181 181 188 191 178 172 171 180 173 167 171 170 169 167 161 155 155 159 144 150 173 165 151 144 148 146 83 296 282 229 207 196 179 158 184 190 197 218 218 296 308
175 176 181 184 188 197 185 172 172 172 173 168 173 170 171 170 167 164 158 163 151 147 168 166 152 153 173 159 160 184 259 292 256 223 204 214 218 206 218 202 256 314 322
179 181 188 186 190 195 175 154 150 153 150 162 171 178 182 177 174 168 161 162 157 156 177 177 171 168 180 208 190 172 174 227 286 254 226 217 213 216 225 193 253 299 310
183 179 179 183 189 187 166 162 169 183 183 184 178 176 172 175 167 160 156 156 157 158 176 182 178 174 168 191 229 241 222 197 201 283 271 233 219 226 222 227 245 290 298
177 171 175 184 190 180 169 172 177 181 174 162 156 164 166 162 157 159 160 161 157 160 172 171 167 166 171 178 191 212 248 273 220 214 263 275 275 242 218 209 191 285 291
166 164 177 186 189 177 173 176 176 173 163 161 165 172 170 164 164 162 157 157 151 155 171 169 169 165 169 167 179 182 191 198 213 228 243 263 273 265 244 220 210 244 291
Height
1504 1505 1507 1509 1510 1512 1513 1515 1516 1517 1519 1520 1521 1522 1523 1523 1524 1525 1526 1527 1527 1528 1528 1529 1529 1530 1530 1530 1531 1531 1531 1532 1532 1532 1532 1532 1532 1532 1532 1532 1532 1532 1532
1503 1505 1507 1509 1510 1512 1513 1515 1517 1518 1519 1520 1521 1522 1523 1524 1525 1526 1527 1528 1528 1529 1529 1530 1530 1530 1530 1531 1531 1532 1532 1533 1533 1533 1533 1533 1533 1534 1533 1533 1533 1533 1533
1503 1505 1507 1509 1510 1512 1514 1515 1517 1518 1520 1521 1522 1523 1524 1525 1526 1527 1527 1528 1529 1529 1530 1530 1531 1531 1531 1531 1532 1533 1533 1534 1534 1534 1534 1534 1535 1535 1535 1534 1534 1534 1534
1503 1504 1507 1508 1510 1512 1514 1515 1517 1519 1520 1521 1522 1523 1524 1525 1526 1527 1528 1529 1529 1530 1530 1531 1531 1532 1532 1533 1533 1534 1534 1535 1535 1535 1535 1535 1535 1535 1535 1535 1535 1535 1534
1503 1504 1506 1508 1510 1512 1513 1515 1517 1519 1520 1521 1523 1524 1524 1525 1526 1527 1528 1529 1530 1530 1531 1531 1532 1532 1533 1533 1534 1535 1535 1536 1536 1536 1536 1536 1536 1536 1536 1536 1536 1535 1535
1503 1504 1506 1508 1509 1511 1513 1515 1517 1518 1520 1521 1523 1524 1525 1526 1527 1527 1528 1529 1530 1530 1531 1531 1532 1533 1533 1534 1535 1535 1536 1536 1536 1536 1537 1536 1537 1537 1536 1536 1536 1536 1535
1502 1503 1505 1507 1509 1511 1513 1514 1516 1518 1519 1521 1522 1523 1525 1526 1526 1527 1528 1529 1530 1530 1531 1532 1532 1533 1534 1534 1535 1535 1536 1536 1537 1537 1537 1537 1537 1537 1537 1536 1536 1536 1535
1501 1502 1504 1506 1508 1510 1512 1514 1516 1517 1519 1520 1522 1523 1524 1525 1526 1527 1528 1529 1530 1530 1531 1532 1532 1533 1534 1534 1535 1535 1536 1536 1536 1537 1537 1537 1537 1537 1537 1536 1536 1535 1535
1501 1502 1503 1505 1507 1509 1511 1513 1515 1517 1518 1520 1521 1522 1524 1525 1526 1527 1528 1529 1529 1530 1531 1531 1532 1533 1534 1534 1535 1535 1536 1536 1536 1536 1537 1537 1537 1537 1536 1536 1535 1535 1534
1500 1501 1502 1504 1506 1508 1510 1512 1514 1516 1518 1519 1520 1522 1523 1524 1525 1526 1527 1528 1529 1530 1531 1531 1532 1533 1533 1534 1534 1535 1535 1536 1536 1536 1536 1536 1536 1536 1536 1535 1535 1535 1534
1498 1500 1501 1503 1504 1506 1508 1510 1513 1515 1517 1518 1520 1521 1522 1523 1524 1525 1527 1527 1528 1529 1530 1531 1532 1532 1533 1533 1534 1534 1535 1535 1535 1535 1535 1536 1536 1536 1535 1535 1534 1534 1533
1496 1498 1500 1501 1503 1504 1506 1508 1511 1513 1515 1517 1518 1520 1521 1522 1523 1524 1526 1526 1527 1528 1529 1530 1531 1532 1532 1532 1533 1534 1534 1534 1535 1535 1535 1535 1535 1535 1535 1534 1534 1533 1533
1494 1496 1497 1499 1501 1503 1504 1506 1509 1511 1513 1515 1517 1518 1520 1521 1522 1523 1524 1525 1526 1527 1528 1529 1530 1530 1531 1532 1532 1533 1533 1534 1533 1534 1534 1534 1534 1534 1534 1533 1533 1532 1531
1492 1493 1495 1497 1499 1500 1502 1504 1506 1508 1510 1513 1515 1517 1518 1520 1521 1522 1523 1524 1525 1526 1527 1528 1528 1529 1530 1531 1531 1532 1532 1532 1532 1532 1532 1533 1533 1533 1532 1532 1531 1531 1530
1489 1490 1492 1494 1496 1498 1499 1502 1504 1506 1508 1510 1512 1515 1516 1518 1519 1520 1521 1522 1523 1525 1525 1526 1527 1528 1529 1529 1530 1530 1530 1531 1531 1531 1531 1531 1531 1531 1531 1531 1530 1529 1528
1486 1487 1489 1491 1493 1495 1497 1499 1501 1504 1506 1508 1510 1512 1514 1516 1517 1519 1520 1521 1522 1523 1524 1525 1526 1526 1527 1528 1528 1529 1529 1529 1529 1529 1529 1529 1529 1529 1529 1528 1528 1527 1526
1482 1484 1486 1488 1490 1492 1494 1497 1499 1501 1503 1505 1507 1509 1511 1513 1515 1516 1518 1519 1520 1521 1522 1523 1524 1525 1525 1526 1526 1527 1528 1528 1527 1527 1527 1526 1526 1526 1526 1526 1526 1525 1524
1478 1480 1482 1485 1486 1489 1491 1494 1496 1498 1500 1502 1504 1506 1508 1510 1512 1514 1515 1516 1518 1519 1520 1520 1521 1523 1523 1524 1524 1525 1525 1526 1525 1525 1525 1525 1525 1524 1524 1524 1523 1523 1522
1475 1476 1478 1481 1483 1485 1488 1491 1493 1494 1497 1499 1501 1504 1506 1508 1510 1511 1513 1514 1515 1516 1517 1517 1519 1520 1521 1522 1522 1523 1523 1523 1523 1523 1523 1523 1523 1522 1522 1521 1520 1520 1519
1471 1473 1474 1477 1479 1481 1484 1487 1489 1492 1493 1495 1498 1500 1503 1505 1507 1508 1510 1511 1512 1513 1514 1515 1516 1518 1519 1520 1520 1521 1521 1521 1521 1521 1521 1521 1521 1520 1519 1519 1518 1517 1516
1467 1468 1470 1473 1475 1478 1479 1482 1485 1487 1490 1492 1494 1497 1499 1501 1503 1505 1507 1508 1509 1510 1511 1512 1514 1515 1516 1517 1518 1518 1518 1518 1519 1519 1519 1519 1518 1518 1517 1516 1515 1514 1513
1462 1464 1466 1469 1471 1473 1476 1478 1481 1484 1486 1489 1491 1493 1496 1498 1500 1501 1503 1505 1506 1507 1508 1510 1511 1512 1513 1514 1515 1515 1515 1516 1516 1516 1517 1516 1516 1515 1514 1513 1512 1511 1510
1458 1460 1462 1464 1467 1469 1472 1475 1478 1480 1482 1485 1487 1490 1492 1494 1496 1498 1499 1501 1502 1504 1505 1507 1508 1508 1510 1511 1513 1514 1513 1512 1512 1513 1513 1513 1512 1512 1511 1510 1509 1508 1507
1454 1456 1459 1461 1463 1466 1468 1471 1473 1476 1478 1481 1484 1486 1488 1491 1492 1494 1495 1497 1499 1500 1502 1503 1505 1506 1507 1508 1509 1510 1511 1510 1510 1509 1509 1509 1509 1509 1508 1507 1506 1505 1504
1450 1453 1455 1457 1459 1461 1464 1467 1470 1472 1474 1478 1481 1483 1485 1487 1489 1491 1492 1494 1495 1496 1498 1499 1501 1503 1504 1505 1505 1506 1507 1507 1507 1507 1505 1505 1505 1505 1504 1503 1502 1502 1500
1447 1450 1451 1453 1455 1457 1460 1463 1466 1468 1471 1474 1477 1479 1481 1483 1486 1487 1488 1490 1491 1493 1494 1496 1497 1499 1500 1501 1502 1503 1503 1503 1503 1503 1502 1501 1500 1500 1500 1499 1499 1498 1496